Weather History for Cambridge, United Kingdom

Change the Weather History Date:

Monday, October 29, 2012

  Actual Average Record
Temperature  
Mean Temperature 48 °F -  
Max Temperature 53 °F 48 °F 60 °F (2005)
Min Temperature 44 °F 40 °F 24 °F (1997)
Degree Days  
Heating Degree Days 16    
Moisture  
Dew Point 44 °F    
Average Humidity 82    
Maximum Humidity 93    
Minimum Humidity 76    
Precipitation  
Precipitation 0.00 in - - ()
Sea Level Pressure  
Sea Level Pressure 29.74 in    
Wind  
Wind Speed 8 mph ()    
Max Wind Speed 15 mph    
Max Gust Speed -    
Visibility 6.2 miles    
Events      
Averages and records for this station are not official NWS values.
T = Trace of Precipitation, MM = Missing Value Source: Averaged Metar Reports

Daily Weather History Graph

Daily Weather History Graph

Search for Another Location

Airport:

Trip Planner

Search our weather history database for the weather conditions in past years. The results will help you decide how hot, cold, wet, or windy it might be!

Date:

Astronomy

Oct. 29, 2012 Rise Set
Actual Time 6:49 AM GMT 4:35 PM GMT
Civil Twilight 6:14 AM GMT 5:10 PM GMT
Nautical Twilight 5:34 AM GMT 5:50 PM GMT
Astronomical Twilight 4:55 AM GMT 6:29 PM GMT
Moon 4:14 PM GMT (10/29) 6:28 AM GMT (10/29)
Length of Visible Light 10h 56m
Length of Day
9h 45m
Full, 100% of the Moon is Illuminated
Oct 29
Full
Oct 29
Full
Nov 7
Last Quarter
Nov 13
New
Nov 20
First Quarter

Hourly Weather History & Observations

Time (GMT) Temp. Windchill Dew Point Humidity Pressure Visibility Wind Dir Wind Speed Gust Speed Precip Events Conditions
6:50 AM 44.6 °F 40.2 °F 41.0 °F 87% 29.77 in - South 8.1 mph - N/A   Clear
7:20 AM 44.6 °F 41.4 °F 41.0 °F 87% 29.77 in - SSW 5.8 mph - N/A   Clear
7:50 AM 44.6 °F 41.4 °F 42.8 °F 93% 29.77 in - SSW 5.8 mph - N/A   Clear
8:20 AM 46.4 °F 42.9 °F 42.8 °F 87% 29.77 in - SSW 6.9 mph - N/A   Clear
8:50 AM 46.4 °F 42.9 °F 42.8 °F 87% 29.77 in - SSW 6.9 mph - N/A   Clear
9:50 AM 50.0 °F - 44.6 °F 82% 29.77 in 6.2 mi SW 9.2 mph - N/A   Partly Cloudy
10:20 AM 50.0 °F - 44.6 °F 82% 29.77 in 6.2 mi SW 13.8 mph - N/A   Partly Cloudy
10:50 AM 51.8 °F - 46.4 °F 82% 29.74 in 6.2 mi SW 11.5 mph - N/A   Scattered Clouds
11:20 AM 51.8 °F - 46.4 °F 82% 29.74 in 6.2 mi SW 13.8 mph - N/A   Mostly Cloudy
11:50 AM 53.6 °F - 46.4 °F 77% 29.74 in 6.2 mi SW 13.8 mph - N/A   Mostly Cloudy
12:20 PM 51.8 °F - 44.6 °F 76% 29.74 in 6.2 mi SW 15.0 mph - N/A   Mostly Cloudy
12:50 PM 51.8 °F - 44.6 °F 76% 29.74 in 6.2 mi West 12.7 mph - N/A   Mostly Cloudy
1:20 PM 51.8 °F - 44.6 °F 76% 29.74 in 6.2 mi West 11.5 mph - N/A   Mostly Cloudy
1:50 PM 51.8 °F - 44.6 °F 76% 29.74 in 6.2 mi WSW 9.2 mph - N/A   Mostly Cloudy
2:20 PM 51.8 °F - 44.6 °F 76% 29.74 in 6.2 mi WSW 8.1 mph - N/A   Mostly Cloudy
2:50 PM 51.8 °F - 44.6 °F 76% 29.74 in 6.2 mi WSW 9.2 mph - N/A   Mostly Cloudy
3:20 PM 51.8 °F - 44.6 °F 76% 29.71 in 6.2 mi WSW 8.1 mph - N/A   Mostly Cloudy
4:20 PM 51.8 °F - 44.6 °F 76% 29.74 in 6.2 mi West 5.8 mph - N/A   Mostly Cloudy
4:50 PM 50.0 °F - 44.6 °F 82% 29.74 in 6.2 mi WSW 6.9 mph - N/A   Mostly Cloudy
5:20 PM 50.0 °F - 44.6 °F 82% 29.71 in 6.2 mi WSW 5.8 mph - N/A   Mostly Cloudy
5:50 PM 48.2 °F - 44.6 °F 87% 29.71 in 6.2 mi SW 4.6 mph - N/A   Scattered Clouds
6:20 PM 48.2 °F - 44.6 °F 87% 29.74 in - WSW 5.8 mph - N/A   Clear
6:50 PM 48.2 °F - 44.6 °F 87% 29.71 in - WSW 5.8 mph - N/A   Clear